,,Stat5,,Stat1,,Stat2,,Stat3,,Stat4,,Wind1,,Wind1,
time,status,PA1M_AVG,status,PR1M_SUM,status,RH1M_AVG,status,SR1M_AVG,status,TA1M_AVG,status,W1dAve1m,status,W1sAve1m,
2000-12-25, 00:00:01,VALID,917.214,VALID,0,VALID,97.5143,VALID,0.0339617,VALID,19.2809,VALID,82,VALID,0.957227,
2000-12-25, 00:01:00,VALID,917.219,VALID,0,VALID,97.6402,VALID,0,VALID,19.2191,VALID,95,VALID,0.331826,
2000-12-25, 00:02:00,VALID,917.202,VALID,0,VALID,97.7889,VALID,0,VALID,19.2029,VALID,95,VALID,0.465872,
2000-12-25, 00:03:00,VALID,917.198,VALID,0,VALID,97.911,VALID,0.0509425,VALID,19.1808,VALID,107,VALID,0.219618,
2000-12-25, 00:04:00,VALID,917.178,VALID,0,VALID,98.0496,VALID,0.0849042,VALID,19.1711,VALID,93,VALID,0.00675676,
2000-12-25, 00:05:00,VALID,917.183,VALID,0,VALID,98.1374,VALID,0.0169808,VALID,19.1716,VALID,93,VALID,0.0293561,
2000-12-25, 00:06:00,VALID,917.19,VALID,0,VALID,98.1933,VALID,0.0339617,VALID,19.1579,VALID,93,VALID,0,
2000-12-25, 00:07:00,VALID,917.196,VALID,0,VALID,98.2276,VALID,0.0339617,VALID,19.1383,VALID,93,VALID,0,
2000-12-25, 00:08:00,VALID,917.197,VALID,0,VALID,98.2594,VALID,0,VALID,19.1351,VALID,83,VALID,0,
2000-12-25, 00:09:00,VALID,917.208,VALID,0,VALID,98.3421,VALID,0.0169808,VALID,19.1483,VALID,321,VALID,0,
2000-12-25, 00:10:00,VALID,917.205,VALID,0,VALID,98.4018,VALID,0.0509425,VALID,19.1455,VALID,320,VALID,0,
2000-12-25, 00:11:00,VALID,917.202,VALID,0,VALID,98.4273,VALID,0.0169808,VALID,19.1259,VALID,313,VALID,0,
2000-12-25, 00:12:00,VALID,917.219,VALID,0,VALID,98.4807,VALID,0.0339617,VALID,19.1259,VALID,310,VALID,0,
2000-12-25, 00:13:00,VALID,917.201,VALID,0,VALID,98.515,VALID,0.0169808,VALID,19.1132,VALID,310,VALID,0,
2000-12-25, 00:14:00,VALID,917.199,VALID,0,VALID,98.5443,VALID,0.0169808,VALID,19.1037,VALID,310,VALID,0,
2000-12-25, 00:15:00,VALID,917.2,VALID,0,VALID,98.5799,VALID,0.0339617,VALID,19.0941,VALID,305,VALID,0,
2000-12-25, 00:16:00,VALID,917.196,VALID,0,VALID,98.6066,VALID,0,VALID,19.0874,VALID,266,VALID,0,
2000-12-25, 00:17:00,VALID,917.18,VALID,0,VALID,98.6574,VALID,0,VALID,19.074,VALID,258,VALID,0.399054,
2000-12-25, 00:18:00,VALID,917.17,VALID,0,VALID,98.7134,VALID,0,VALID,19.0941,VALID,247,VALID,0.317023,
2000-12-25, 00:19:00,VALID,917.165,VALID,0,VALID,98.7159,VALID,0.0169808,VALID,19.1003,VALID,247,VALID,0,
2000-12-25, 00:20:00,VALID,917.158,VALID,0,VALID,98.7363,VALID,0.0339617,VALID,19.1169,VALID,248,VALID,0,
2000-12-25, 00:21:00,VALID,917.158,VALID,0,VALID,98.721,VALID,0,VALID,19.1331,VALID,249,VALID,0.0051398,
2000-12-25, 00:22:00,VALID,917.163,VALID,0,VALID,98.7019,VALID,0,VALID,19.1264,VALID,252,VALID,0.211138,
2000-12-25, 00:23:00,VALID,917.156,VALID,0,VALID,98.6892,VALID,0,VALID,19.1266,VALID,254,VALID,0.117188,
2000-12-25, 00:24:00,VALID,917.156,VALID,0,VALID,98.7019,VALID,0,VALID,19.1365,VALID,263,VALID,0.14668,
2000-12-25, 00:25:00,VALID,917.155,VALID,0,VALID,98.7147,VALID,0,VALID,19.1393,VALID,268,VALID,0.0653783,
2000-12-25, 00:26:00,VALID,917.136,VALID,0,VALID,98.6905,VALID,0,VALID,19.1589,VALID,268,VALID,0,
2000-12-25, 00:27:00,VALID,917.13,VALID,0,VALID,98.6727,VALID,0,VALID,19.1457,VALID,265,VALID,0,
2000-12-25, 00:28:00,VALID,917.126,VALID,0,VALID,98.6613,VALID,0,VALID,19.143,VALID,236,VALID,0.210732,
2000-12-25, 00:29:00,VALID,917.111,VALID,0,VALID,98.6752,VALID,0.0169808,VALID,19.1529,VALID,223,VALID,0.401933,
2000-12-25, 00:30:00,VALID,917.096,VALID,0,VALID,98.7032,VALID,0.0169808,VALID,19.1755,VALID,209,VALID,0.677684,
2000-12-25, 00:31:00,VALID,917.094,VALID,0,VALID,98.7248,VALID,-0.0169808,VALID,19.1915,VALID,203,VALID,0.561472,
2000-12-25, 00:32:00,VALID,917.087,VALID,0,VALID,98.6549,VALID,0,VALID,19.2111,VALID,168,VALID,0.391602,
2000-12-25, 00:33:00,VALID,917.076,VALID,0,VALID,98.5417,VALID,0.0339617,VALID,19.1852,VALID,134,VALID,0.648026,
2000-12-25, 00:34:00,VALID,917.059,VALID,0,VALID,98.5137,VALID,0.0169808,VALID,19.1818,VALID,137,VALID,0.589433,
2000-12-25, 00:35:00,VALID,917.064,VALID,0,VALID,98.4553,VALID,0,VALID,19.1654,VALID,128,VALID,0.78639,
2000-12-25, 00:36:00,VALID,917.054,VALID,0,VALID,98.4425,VALID,0,VALID,19.1363,VALID,134,VALID,0.544727,
2000-12-25, 00:37:00,VALID,917.028,VALID,0,VALID,98.3942,VALID,0,VALID,19.1236,VALID,135,VALID,0.258018,
2000-12-25, 00:38:00,VALID,917.029,VALID,0,VALID,98.3662,VALID,0.0339617,VALID,19.1075,VALID,135,VALID,0.302284,
2000-12-25, 00:39:00,VALID,917.019,VALID,0,VALID,98.3624,VALID,0.0339617,VALID,19.0811,VALID,138,VALID,0.47759,
2000-12-25, 00:40:00,VALID,917.013,VALID,0,VALID,98.3561,VALID,0,VALID,19.0722,VALID,159,VALID,0.585938,
2000-12-25, 00:41:00,VALID,917.007,VALID,0,VALID,98.3586,VALID,0.0169808,VALID,19.0553,VALID,186,VALID,0.816201,
2000-12-25, 00:42:00,VALID,917.006,VALID,0,VALID,98.4756,VALID,0,VALID,19.0814,VALID,187,VALID,0.905839,
2000-12-25, 00:43:00,VALID,916.988,VALID,0,VALID,98.4603,VALID,0,VALID,19.1104,VALID,199,VALID,0.778166,
2000-12-25, 00:44:00,VALID,916.977,VALID,0,VALID,98.4044,VALID,0,VALID,19.1402,VALID,186,VALID,0.815039,
2000-12-25, 00:45:00,VALID,916.96,VALID,0,VALID,98.3815,VALID,0,VALID,19.143,VALID,197,VALID,0.75884,
2000-12-25, 00:46:00,VALID,916.96,VALID,0,VALID,98.3815,VALID,0,VALID,19.1524,VALID,226,VALID,0.935697,
2000-12-25, 00:47:00,VALID,916.944,VALID,0,VALID,98.3879,VALID,0,VALID,19.149,VALID,223,VALID,1.24548,
2000-12-25, 00:48:00,VALID,916.938,VALID,0,VALID,98.4336,VALID,0,VALID,19.146,VALID,227,VALID,1.0457,
2000-12-25, 00:49:00,VALID,916.922,VALID,0,VALID,98.4362,VALID,-0.0169808,VALID,19.1338,VALID,225,VALID,0.828536,
2000-12-25, 00:50:00,VALID,916.923,VALID,0.2,VALID,98.4832,VALID,0.0849042,VALID,19.1134,VALID,220,VALID,1.02837,
2000-12-25, 00:51:00,VALID,916.916,VALID,0,VALID,98.5468,VALID,0.101885,VALID,19.0799,VALID,220,VALID,1.23129,
2000-12-25, 00:52:00,VALID,916.899,VALID,0,VALID,98.5862,VALID,0.101885,VALID,19.0702,VALID,219,VALID,1.2582,
2000-12-25, 00:53:00,VALID,916.9,VALID,0,VALID,98.6524,VALID,0.101885,VALID,19.0546,VALID,212,VALID,1.22903,
2000-12-25, 00:54:00,VALID,916.89,VALID,0,VALID,98.7045,VALID,0.101885,VALID,19.0414,VALID,210,VALID,0.955529,
2000-12-25, 00:55:00,VALID,916.878,VALID,0,VALID,98.7528,VALID,0.101885,VALID,19.0218,VALID,209,VALID,0.805304,
2000-12-25, 00:56:00,VALID,916.877,VALID,0,VALID,98.8024,VALID,0.101885,VALID,19.0183,VALID,211,VALID,0.581445,
2000-12-25, 00:57:00,VALID,916.87,VALID,0,VALID,98.8418,VALID,0.101885,VALID,19.0091,VALID,212,VALID,0.681743,
2000-12-25, 00:58:00,VALID,916.861,VALID,0,VALID,98.8851,VALID,0.118866,VALID,19.0188,VALID,212,VALID,0.763775,
2000-12-25, 00:59:00,VALID,916.855,VALID,0,VALID,98.9525,VALID,0.101885,VALID,19.0345,VALID,217,VALID,1.03824,
2000-12-25, 01:00:00,VALID,916.84,VALID,0,VALID,98.9804,VALID,0.0849042,VALID,19.0647,VALID,205,VALID,0.750195,
2000-12-25, 01:01:00,VALID,916.837,VALID,0,VALID,98.9982,VALID,0.135847,VALID,19.0735,VALID,198,VALID,1.00925,
2000-12-25, 01:02:00,VALID,916.812,VALID,0,VALID,99.0275,VALID,0.101885,VALID,19.1025,VALID,207,VALID,0.632011,
2000-12-25, 01:03:00,VALID,916.821,VALID,0,VALID,99.0237,VALID,0.101885,VALID,19.1254,VALID,186,VALID,0.680921,
2000-12-25, 01:04:00,VALID,916.814,VALID,0,VALID,99.0084,VALID,0.101885,VALID,19.1445,VALID,188,VALID,0.906055,
2000-12-25, 01:05:00,VALID,916.799,VALID,0,VALID,98.9741,VALID,0.0169808,VALID,19.1684,VALID,173,VALID,0.687089,
2000-12-25, 01:06:00,VALID,916.786,VALID,0,VALID,98.941,VALID,0.0339617,VALID,19.1815,VALID,178,VALID,0.885896,
2000-12-25, 01:07:00,VALID,916.788,VALID,0,VALID,98.9092,VALID,0,VALID,19.2014,VALID,170,VALID,0.760485,
2000-12-25, 01:08:00,VALID,916.782,VALID,0,VALID,98.9283,VALID,0,VALID,19.2275,VALID,177,VALID,0.957422,
2000-12-25, 01:09:00,VALID,916.759,VALID,0,VALID,98.9181,VALID,-0.0169808,VALID,19.2595,VALID,175,VALID,0.746299,
2000-12-25, 01:10:00,VALID,916.753,VALID,0,VALID,98.8266,VALID,0,VALID,19.2787,VALID,187,VALID,0.515425,
2000-12-25, 01:11:00,VALID,916.728,VALID,0,VALID,98.7579,VALID,0,VALID,19.2847,VALID,203,VALID,0.800164,
2000-12-25, 01:12:00,VALID,916.711,VALID,0,VALID,98.6905,VALID,0.0169808,VALID,19.2879,VALID,197,VALID,1.08125,
2000-12-25, 01:13:00,VALID,916.687,VALID,0,VALID,98.6256,VALID,0,VALID,19.2981,VALID,195,VALID,0.937911,
2000-12-25, 01:14:00,VALID,916.672,VALID,0,VALID,98.5722,VALID,0.0169808,VALID,19.2981,VALID,183,VALID,1.00103,
2000-12-25, 01:15:00,VALID,916.66,VALID,0,VALID,98.5468,VALID,0,VALID,19.314,VALID,200,VALID,1.21094,
2000-12-25, 01:16:00,VALID,916.651,VALID,0,VALID,98.4629,VALID,0,VALID,19.3108,VALID,210,VALID,1.17285,
2000-12-25, 01:17:00,VALID,916.641,VALID,0,VALID,98.4298,VALID,0.0339617,VALID,19.3334,VALID,209,VALID,1.07422,
2000-12-25, 01:18:00,VALID,916.634,VALID,0,VALID,98.3815,VALID,0,VALID,19.3503,VALID,225,VALID,1.46154,
2000-12-25, 01:19:00,VALID,916.615,VALID,0,VALID,98.337,VALID,0.0339617,VALID,19.3465,VALID,219,VALID,1.19901,
2000-12-25, 01:20:00,VALID,916.604,VALID,0,VALID,98.2772,VALID,-0.0169808,VALID,19.3468,VALID,223,VALID,1.15664,
2000-12-25, 01:21:00,VALID,916.594,VALID,0,VALID,98.2543,VALID,-0.0169808,VALID,19.3336,VALID,236,VALID,1.47965,
2000-12-25, 01:22:00,VALID,916.585,VALID,0,VALID,98.1958,VALID,-0.0339617,VALID,19.3373,VALID,228,VALID,1.46114,
2000-12-25, 01:23:00,VALID,916.577,VALID,0,VALID,98.1653,VALID,-0.0509425,VALID,19.3083,VALID,233,VALID,1.62233,
2000-12-25, 01:24:00,VALID,916.569,VALID,0,VALID,98.2175,VALID,-0.0339617,VALID,19.2953,VALID,235,VALID,1.59629,
2000-12-25, 01:25:00,VALID,916.554,VALID,0,VALID,98.1971,VALID,-0.0509425,VALID,19.2658,VALID,230,VALID,1.67023,
2000-12-25, 01:26:00,VALID,916.542,VALID,0,VALID,98.2378,VALID,-0.0169808,VALID,19.2399,VALID,224,VALID,1.63141,
2000-12-25, 01:27:00,VALID,916.522,VALID,0,VALID,98.2556,VALID,-0.0339617,VALID,19.2116,VALID,227,VALID,1.44881,
2000-12-25, 01:28:00,VALID,916.515,VALID,0,VALID,98.3179,VALID,-0.0679233,VALID,19.1758,VALID,222,VALID,1.28984,
2000-12-25, 01:29:00,VALID,916.494,VALID,0,VALID,98.4108,VALID,-0.0679233,VALID,19.1467,VALID,215,VALID,1.45415,
2000-12-25, 01:30:00,VALID,916.489,VALID,0,VALID,98.529,VALID,-0.0509425,VALID,19.1633,VALID,224,VALID,1.66283,
2000-12-25, 01:31:00,VALID,916.489,VALID,0,VALID,98.6104,VALID,-0.0509425,VALID,19.1822,VALID,219,VALID,1.5845,
2000-12-25, 01:32:00,VALID,916.474,VALID,0,VALID,98.6256,VALID,-0.0339617,VALID,19.2245,VALID,230,VALID,1.37246,
2000-12-25, 01:33:00,VALID,916.471,VALID,0,VALID,98.5773,VALID,0,VALID,19.2533,VALID,229,VALID,1.19243,
2000-12-25, 01:34:00,VALID,916.049,VALID,0,VALID,98.5048,VALID,0,VALID,19.2658,VALID,213,VALID,1.01362,
2000-12-25, 01:35:00,VALID,916.468,VALID,0,VALID,98.4705,VALID,-0.0169808,VALID,19.2951,VALID,214,VALID,1.03187,
2000-12-25, 01:36:00,VALID,916.463,VALID,0,VALID,98.3968,VALID,0,VALID,19.3147,VALID,219,VALID,0.980859,
2000-12-25, 01:37:00,VALID,916.445,VALID,0,VALID,98.3497,VALID,-0.0169808,VALID,19.3246,VALID,223,VALID,0.655428,
2000-12-25, 01:38:00,VALID,916.452,VALID,0,VALID,98.2887,VALID,-0.0509425,VALID,19.3177,VALID,216,VALID,0.811883,
2000-12-25, 01:39:00,VALID,916.432,VALID,0,VALID,98.2632,VALID,-0.0169808,VALID,19.3276,VALID,223,VALID,0.924753,
2000-12-25, 01:40:00,VALID,916.426,VALID,0,VALID,98.2416,VALID,-0.0339617,VALID,19.347,VALID,210,VALID,0.811328,
2000-12-25, 01:41:00,VALID,916.414,VALID,0,VALID,98.206,VALID,-0.0339617,VALID,19.344,VALID,222,VALID,0.751234,
2000-12-25, 01:42:00,VALID,916.4,VALID,0,VALID,98.1602,VALID,-0.0169808,VALID,19.3371,VALID,217,VALID,0.954527,
2000-12-25, 01:43:00,VALID,916.381,VALID,0,VALID,98.1348,VALID,0,VALID,19.3406,VALID,216,VALID,0.968956,
2000-12-25, 01:44:00,VALID,916.365,VALID,0,VALID,98.1526,VALID,-0.0169808,VALID,19.3401,VALID,228,VALID,0.829492,
2000-12-25, 01:45:00,VALID,916.365,VALID,0,VALID,98.0839,VALID,-0.0339617,VALID,19.3505,VALID,222,VALID,0.954153,
2000-12-25, 01:46:00,VALID,916.356,VALID,0,VALID,98.0483,VALID,-0.0169808,VALID,19.3435,VALID,216,VALID,0.884046,
2000-12-25, 01:47:00,VALID,916.364,VALID,0,VALID,97.9949,VALID,-0.0509425,VALID,19.3565,VALID,224,VALID,1.06743,
2000-12-25, 01:48:00,VALID,916.367,VALID,0,VALID,97.9682,VALID,0,VALID,19.3435,VALID,219,VALID,0.682422,
2000-12-25, 01:49:00,VALID,916.349,VALID,0,VALID,97.9619,VALID,-0.0509425,VALID,19.3368,VALID,230,VALID,0.923725,
2000-12-25, 01:50:00,VALID,916.352,VALID,0,VALID,97.9466,VALID,-0.0169808,VALID,19.3371,VALID,228,VALID,1.24559,
2000-12-25, 01:51:00,VALID,916.346,VALID,0,VALID,97.9809,VALID,0,VALID,19.3304,VALID,227,VALID,1.58429,
2000-12-25, 01:52:00,VALID,916.346,VALID,0,VALID,97.9619,VALID,0,VALID,19.347,VALID,228,VALID,0.877148,
2000-12-25, 01:53:00,VALID,916.344,VALID,0,VALID,97.9657,VALID,0,VALID,19.3339,VALID,224,VALID,1.03043,
2000-12-25, 01:54:00,VALID,916.341,VALID,0,VALID,97.9581,VALID,-0.0339617,VALID,19.3403,VALID,229,VALID,1.07545,
2000-12-25, 01:55:00,VALID,916.341,VALID,0,VALID,97.9517,VALID,-0.0339617,VALID,19.341,VALID,230,VALID,0.934622,
2000-12-25, 01:56:00,VALID,916.32,VALID,0,VALID,97.967,VALID,0,VALID,19.3242,VALID,220,VALID,0.914844,
2000-12-25, 01:57:00,VALID,916.309,VALID,0,VALID,97.9568,VALID,0,VALID,19.3073,VALID,231,VALID,1.0845,
2000-12-25, 01:58:01,VALID,916.306,VALID,0,VALID,97.9708,VALID,-0.0169808,VALID,19.3018,VALID,235,VALID,0.996995,
2000-12-25, 01:59:00,VALID,916.293,VALID,0,VALID,97.9898,VALID,0,VALID,19.2849,VALID,227,VALID,1.04646,
2000-12-25, 02:00:00,VALID,916.283,VALID,0,VALID,98.0051,VALID,-0.0169808,VALID,19.2658,VALID,229,VALID,1.01973,
2000-12-25, 02:01:00,VALID,916.273,VALID,0,VALID,98.0636,VALID,-0.0169808,VALID,19.2591,VALID,217,VALID,1.06805,
2000-12-25, 02:02:00,VALID,916.269,VALID,0,VALID,98.0509,VALID,0,VALID,19.2563,VALID,223,VALID,0.539679,
2000-12-25, 02:03:00,VALID,916.258,VALID,0,VALID,98.042,VALID,-0.0169808,VALID,19.2431,VALID,201,VALID,0.462171,
2000-12-25, 02:04:00,VALID,916.246,VALID,0,VALID,98.0369,VALID,-0.0169808,VALID,19.2235,VALID,209,VALID,0.275781,
2000-12-25, 02:05:00,VALID,916.237,VALID,0,VALID,98.0763,VALID,0,VALID,19.2208,VALID,213,VALID,0.46176,
2000-12-25, 02:06:00,VALID,916.228,VALID,0,VALID,98.0814,VALID,0,VALID,19.2081,VALID,204,VALID,0.503205,
2000-12-25, 02:07:00,VALID,916.221,VALID,0,VALID,98.1081,VALID,-0.0169808,VALID,19.1949,VALID,208,VALID,0.298109,
2000-12-25, 02:08:01,VALID,916.215,VALID,0,VALID,98.1361,VALID,-0.0339617,VALID,19.1855,VALID,218,VALID,0.504687,
2000-12-25, 02:09:00,VALID,916.207,VALID,0,VALID,98.1679,VALID,-0.0169808,VALID,19.1691,VALID,216,VALID,0.538857,
2000-12-25, 02:10:01,VALID,916.193,VALID,0,VALID,98.1882,VALID,-0.0339617,VALID,19.143,VALID,214,VALID,0.664679,
2000-12-25, 02:11:00,VALID,916.186,VALID,0,VALID,98.2238,VALID,-0.0339617,VALID,19.14,VALID,208,VALID,0.515831,
2000-12-25, 02:12:00,VALID,916.175,VALID,0,VALID,98.2454,VALID,-0.0339617,VALID,19.1437,VALID,195,VALID,0.759961,
2000-12-25, 02:13:00,VALID,916.174,VALID,0,VALID,98.281,VALID,-0.0339617,VALID,19.1467,VALID,201,VALID,0.856702,
2000-12-25, 02:14:01,VALID,916.159,VALID,0,VALID,98.2493,VALID,-0.0509425,VALID,19.1566,VALID,191,VALID,0.613582,
2000-12-25, 02:15:00,VALID,916.143,VALID,0,VALID,98.2073,VALID,-0.0169808,VALID,19.1763,VALID,199,VALID,0.168791,
2000-12-25, 02:16:01,VALID,916.147,VALID,0,VALID,98.1628,VALID,-0.0169808,VALID,19.1691,VALID,176,VALID,0.329883,
2000-12-25, 02:17:00,VALID,916.146,VALID,0,VALID,98.131,VALID,-0.0169808,VALID,19.1659,VALID,186,VALID,0.484581,
2000-12-25, 02:18:01,VALID,916.139,VALID,0,VALID,98.0916,VALID,-0.0339617,VALID,19.1723,VALID,175,VALID,0.828125,
2000-12-25, 02:19:00,VALID,916.15,VALID,0,VALID,98.0496,VALID,-0.0169808,VALID,19.1656,VALID,170,VALID,0.700863,
2000-12-25, 02:20:00,VALID,916.145,VALID,0,VALID,97.967,VALID,-0.0339617,VALID,19.1529,VALID,138,VALID,0.504297,
2000-12-25, 02:21:00,VALID,916.151,VALID,0,VALID,97.9873,VALID,-0.0679233,VALID,19.1472,VALID,170,VALID,1.07539,
2000-12-25, 02:22:01,VALID,916.151,VALID,0,VALID,98.0038,VALID,-0.0679233,VALID,19.1537,VALID,179,VALID,0.94972,
2000-12-25, 02:23:00,VALID,916.151,VALID,0,VALID,97.9364,VALID,-0.0339617,VALID,19.1373,VALID,156,VALID,0.717722,
2000-12-25, 02:24:01,VALID,916.153,VALID,0,VALID,97.9161,VALID,-0.101885,VALID,19.1308,VALID,152,VALID,0.784375,
2000-12-25, 02:25:00,VALID,916.138,VALID,0,VALID,97.9225,VALID,-0.0679233,VALID,19.1137,VALID,174,VALID,0.572985,
2000-12-25, 02:26:01,VALID,916.145,VALID,0,VALID,97.9403,VALID,-0.0339617,VALID,19.1179,VALID,200,VALID,0.813528,
2000-12-25, 02:27:01,VALID,916.132,VALID,0,VALID,97.9021,VALID,-0.0509425,VALID,19.1213,VALID,185,VALID,0.377467,
2000-12-25, 02:28:00,VALID,916.128,VALID,0,VALID,97.9441,VALID,-0.0679233,VALID,19.095,VALID,185,VALID,0.255859,
2000-12-25, 02:29:00,VALID,916.129,VALID,0,VALID,98.0038,VALID,-0.0339617,VALID,19.101,VALID,198,VALID,0.277344,
2000-12-25, 02:30:01,VALID,916.11,VALID,0,VALID,98.0445,VALID,-0.0679233,VALID,19.1045,VALID,206,VALID,0.316106,
2000-12-25, 02:31:00,VALID,916.106,VALID,0,VALID,98.0127,VALID,-0.0169808,VALID,19.095,VALID,206,VALID,0,
2000-12-25, 02:32:01,VALID,916.095,VALID,0,VALID,98.0967,VALID,-0.0849042,VALID,19.0851,VALID,193,VALID,0.822461,
2000-12-25, 02:33:00,VALID,916.091,VALID,0,VALID,98.1335,VALID,-0.0509425,VALID,19.0948,VALID,187,VALID,0.222656,
2000-12-25, 02:34:01,VALID,916.093,VALID,0,VALID,98.07,VALID,-0.0849042,VALID,19.0985,VALID,176,VALID,0.820724,
2000-12-25, 02:35:00,VALID,916.091,VALID,0,VALID,97.9326,VALID,-0.0509425,VALID,19.0729,VALID,146,VALID,0.223479,
2000-12-25, 02:36:00,VALID,916.1,VALID,0,VALID,97.9339,VALID,-0.0679233,VALID,19.0267,VALID,147,VALID,0.364258,
2000-12-25, 02:37:00,VALID,916.106,VALID,0,VALID,97.9822,VALID,-0.0679233,VALID,19.05,VALID,145,VALID,0.620271,
2000-12-25, 02:38:01,VALID,916.111,VALID,0,VALID,97.9771,VALID,-0.0509425,VALID,19.0207,VALID,159,VALID,0.426883,
2000-12-25, 02:39:01,VALID,916.108,VALID,0,VALID,97.9962,VALID,-0.0339617,VALID,18.9946,VALID,160,VALID,0.529811,
2000-12-25, 02:40:01,VALID,916.101,VALID,0,VALID,98.1081,VALID,-0.0339617,VALID,19.0175,VALID,170,VALID,0.688672,
2000-12-25, 02:41:00,VALID,916.1,VALID,0,VALID,98.1246,VALID,-0.0849042,VALID,19.0135,VALID,185,VALID,0.57134,
2000-12-25, 02:42:01,VALID,916.097,VALID,0,VALID,98.178,VALID,-0.0169808,VALID,19.0369,VALID,190,VALID,0.755962,
2000-12-25, 02:43:00,VALID,916.094,VALID,0,VALID,98.1297,VALID,-0.0339617,VALID,19.0369,VALID,189,VALID,0.669408,
2000-12-25, 02:44:00,VALID,916.098,VALID,0,VALID,98.1106,VALID,-0.0339617,VALID,19.0366,VALID,208,VALID,0.732422,
2000-12-25, 02:45:00,VALID,916.096,VALID,0,VALID,98.1908,VALID,-0.0679233,VALID,19.0466,VALID,207,VALID,0.729235,
2000-12-25, 02:46:01,VALID,916.086,VALID,0,VALID,98.1399,VALID,-0.0169808,VALID,19.0595,VALID,208,VALID,0.667668,
2000-12-25, 02:47:00,VALID,916.08,VALID,0,VALID,98.1869,VALID,-0.0339617,VALID,19.0692,VALID,199,VALID,1.02488,
2000-12-25, 02:48:01,VALID,916.073,VALID,0,VALID,98.1564,VALID,-0.0339617,VALID,19.0682,VALID,199,VALID,0.767773,
2000-12-25, 02:49:00,VALID,916.066,VALID,0,VALID,98.145,VALID,-0.0339617,VALID,19.092,VALID,207,VALID,1.08614,
2000-12-25, 02:50:01,VALID,916.052,VALID,0,VALID,98.1653,VALID,-0.0509425,VALID,19.1049,VALID,211,VALID,1.103,
2000-12-25, 02:51:01,VALID,916.057,VALID,0,VALID,98.0674,VALID,-0.0509425,VALID,19.131,VALID,210,VALID,0.690789,
2000-12-25, 02:52:00,VALID,916.064,VALID,0,VALID,98.0178,VALID,-0.0509425,VALID,19.1276,VALID,204,VALID,0.91543,
2000-12-25, 02:53:00,VALID,916.07,VALID,0,VALID,97.9987,VALID,-0.0339617,VALID,19.1243,VALID,203,VALID,0.538857,
2000-12-25, 02:54:01,VALID,916.056,VALID,0,VALID,97.9504,VALID,-0.0169808,VALID,19.1075,VALID,218,VALID,0.601362,
2000-12-25, 02:55:00,VALID,916.066,VALID,0,VALID,97.9504,VALID,0,VALID,19.1107,VALID,219,VALID,0.647615,
2000-12-25, 02:56:01,VALID,916.061,VALID,0,VALID,97.9275,VALID,-0.0339617,VALID,19.1176,VALID,225,VALID,0.666602,
2000-12-25, 02:57:00,VALID,916.072,VALID,0,VALID,97.9021,VALID,-0.0169808,VALID,19.095,VALID,225,VALID,0.923931,
2000-12-25, 02:58:01,VALID,916.073,VALID,0,VALID,97.9581,VALID,-0.0169808,VALID,19.0915,VALID,223,VALID,1.18318,
2000-12-25, 02:59:00,VALID,916.066,VALID,0,VALID,98.0026,VALID,0,VALID,19.1075,VALID,220,VALID,0.955181,
2000-12-25, 03:00:00,VALID,916.072,VALID,0,VALID,97.9555,VALID,-0.0509425,VALID,19.1246,VALID,229,VALID,0.955664,
2000-12-25, 03:01:00,VALID,916.058,VALID,0,VALID,97.9364,VALID,-0.0339617,VALID,19.104,VALID,231,VALID,1.09971,
2000-12-25, 03:02:01,VALID,916.068,VALID,0,VALID,97.8894,VALID,-0.0339617,VALID,19.1241,VALID,226,VALID,0.932492,
2000-12-25, 03:03:01,VALID,916.066,VALID,0,VALID,97.8462,VALID,-0.0169808,VALID,19.1204,VALID,225,VALID,0.99116,
2000-12-25, 03:04:01,VALID,916.06,VALID,0,VALID,97.8614,VALID,-0.0339617,VALID,19.1172,VALID,226,VALID,1.42305,
2000-12-25, 03:05:00,VALID,916.059,VALID,0,VALID,97.8652,VALID,-0.0509425,VALID,19.1146,VALID,222,VALID,1.16488,
2000-12-25, 03:06:01,VALID,916.035,VALID,0,VALID,97.9046,VALID,-0.0679233,VALID,19.1146,VALID,221,VALID,1.53043,
2000-12-25, 03:07:00,VALID,916.049,VALID,0,VALID,97.9314,VALID,-0.0169808,VALID,19.1179,VALID,218,VALID,1.15502,
2000-12-25, 03:08:00,VALID,916.042,VALID,0,VALID,97.9593,VALID,-0.0339617,VALID,19.1273,VALID,220,VALID,1.12109,
2000-12-25, 03:09:00,VALID,916.048,VALID,0,VALID,97.9237,VALID,-0.0169808,VALID,19.1239,VALID,216,VALID,0.686883,
2000-12-25, 03:10:01,VALID,916.06,VALID,0,VALID,97.8894,VALID,-0.0339617,VALID,19.1172,VALID,230,VALID,0.733173,
2000-12-25, 03:11:00,VALID,916.061,VALID,0,VALID,97.883,VALID,0,VALID,19.1072,VALID,233,VALID,0.763363,
2000-12-25, 03:12:01,VALID,916.066,VALID,0,VALID,97.9466,VALID,-0.0679233,VALID,19.131,VALID,219,VALID,1.36641,
2000-12-25, 03:13:00,VALID,916.059,VALID,0,VALID,97.9695,VALID,-0.0169808,VALID,19.1365,VALID,219,VALID,1.22492,
2000-12-25, 03:14:01,VALID,916.04,VALID,0,VALID,97.9123,VALID,-0.0509425,VALID,19.1532,VALID,223,VALID,1.3567,
2000-12-25, 03:15:01,VALID,916.025,VALID,0,VALID,97.8512,VALID,0,VALID,19.1659,VALID,223,VALID,1.06394,
2000-12-25, 03:16:00,VALID,916.023,VALID,0,VALID,97.8398,VALID,-0.0169808,VALID,19.1728,VALID,217,VALID,1.2375,
2000-12-25, 03:17:00,VALID,916.016,VALID,0,VALID,97.7877,VALID,-0.0169808,VALID,19.1793,VALID,228,VALID,1.2977,
2000-12-25, 03:18:01,VALID,916.013,VALID,0,VALID,97.7775,VALID,-0.0509425,VALID,19.1827,VALID,208,VALID,1.07692,
2000-12-25, 03:19:00,VALID,916.009,VALID,0,VALID,97.7368,VALID,-0.0169808,VALID,19.1753,VALID,215,VALID,0.538446,
2000-12-25, 03:20:01,VALID,916.011,VALID,0,VALID,97.7546,VALID,-0.0169808,VALID,19.1721,VALID,225,VALID,0.894336,
2000-12-25, 03:21:00,VALID,916.017,VALID,0,VALID,97.7343,VALID,0.0169808,VALID,19.1783,VALID,225,VALID,0.680715,
2000-12-25, 03:22:01,VALID,916.011,VALID,0,VALID,97.719,VALID,0.0169808,VALID,19.1818,VALID,228,VALID,1.29749,
2000-12-25, 03:23:00,VALID,916.009,VALID,0,VALID,97.6745,VALID,0.0169808,VALID,19.1949,VALID,215,VALID,0.863281,
2000-12-25, 03:24:01,VALID,916.001,VALID,0,VALID,97.6605,VALID,0.0169808,VALID,19.1907,VALID,215,VALID,1,
2000-12-25, 03:25:00,VALID,915.998,VALID,0,VALID,97.6643,VALID,0,VALID,19.2108,VALID,218,VALID,1.1359,
2000-12-25, 03:26:01,VALID,915.993,VALID,0,VALID,97.6236,VALID,0.0339617,VALID,19.2136,VALID,229,VALID,0.936298,
2000-12-25, 03:27:01,VALID,915.987,VALID,0,VALID,97.6033,VALID,0.0339617,VALID,19.2268,VALID,228,VALID,1.2465,
2000-12-25, 03:28:01,VALID,915.975,VALID,0,VALID,97.5804,VALID,0.0509425,VALID,19.2297,VALID,228,VALID,1.10137,
2000-12-25, 03:29:00,VALID,915.962,VALID,0,VALID,97.5003,VALID,0.0339617,VALID,19.2327,VALID,238,VALID,1.20127,
2000-12-25, 03:30:01,VALID,915.966,VALID,0,VALID,97.4354,VALID,0.0339617,VALID,19.2392,VALID,228,VALID,1.08655,
2000-12-25, 03:31:00,VALID,915.947,VALID,0,VALID,97.4087,VALID,0.0339617,VALID,19.2268,VALID,231,VALID,1.06517,
2000-12-25, 03:32:01,VALID,915.948,VALID,0,VALID,97.513,VALID,0.0509425,VALID,19.2168,VALID,234,VALID,1.13516,
2000-12-25, 03:33:00,VALID,915.947,VALID,0,VALID,97.5473,VALID,0,VALID,19.2213,VALID,235,VALID,1.56867,